Springfield, IL

7:32 PM CST on December 06, 2019 (GMT -0600)
Capital

Weather History for KSPI - October, 2019

Change the Weather History Date:

Sunday, October 6, 2019

  Actual Average Record
Temperature  
Mean Temperature 59 °F 58 °F  
Max Temperature 72 °F 70 °F 90 °F (1963)
Min Temperature 46 °F 46 °F 24 °F (1952)
Degree Days  
Heating Degree Days 6 8  
Month to date heating degree days 21 43  
Since 1 July heating degree days 22 124  
Cooling Degree Days 0 1  
Month to date cooling degree days 32 8  
Year to date cooling degree days 1309 1107  
Growing Degree Days 10 (Base 50)    
Moisture  
Dew Point 49 °F    
Average Humidity 62    
Maximum Humidity 93    
Minimum Humidity 31    
Precipitation  
Precipitation 0.04 in 0.10 in 1.42 in (1955)
Month to date precipitation 0.21 0.60  
Year to date precipitation 40.76 29.15  
Snow  
Snow 0.00 in 0.00 in 0.00 in ()
Month to date snowfall 0.0 0.0  
Since 1 July snowfall 0.0 0.0  
Since 1 September snowfall 0.0 0.0  
Snow Depth 0.00 in    
Sea Level Pressure  
Sea Level Pressure 30.12 in    
Wind  
Wind Speed 5 mph (NW)    
Max Wind Speed 17 mph    
Max Gust Speed 23 mph    
Visibility 10 miles    
Events Rain    
T = Trace of Precipitation, MM = Missing Value Source: NWS Daily Summary

Daily Weather History Graph

Daily Weather History Graph

Search for Another Location

Airport or City:

Astronomy

Oct. 06, 2019 Rise Set
Actual Time 6:59 AM CDT 6:33 PM CDT
Civil Twilight 6:32 AM CDT 7:00 PM CDT
Nautical Twilight 6:01 AM CDT 7:31 PM CDT
Astronomical Twilight 5:29 AM CDT 8:02 PM CDT
Moon 3:11 PM CDT (10/6) No Moon Set
Length of Visible Light 12h 27m
Length of Day
11h 33m
First Quarter, 60% of the Moon is Illuminated
Oct 6
First Quarter
Oct 13
Full
Oct 21
Last Quarter
Oct 27
New
Nov 4
First Quarter

Hourly Weather History & Observations

Time (CDT) Temp. Dew Point Humidity Pressure Visibility Wind Dir Wind Speed Gust Speed Precip Events Conditions
12:52 AM 63.0 °F 59.0 °F 87% 29.96 in 10.0 mi West 5.8 mph - N/A   Overcast
1:52 AM 64.0 °F 59.0 °F 84% 29.99 in 10.0 mi NW 13.8 mph 21.9 mph N/A   Overcast
2:11 AM 63.0 °F 59.0 °F 87% 29.98 in 10.0 mi NNW 10.4 mph - N/A   Overcast
2:38 AM 61.0 °F 55.0 °F 81% 30.01 in 10.0 mi NNW 10.4 mph 21.9 mph N/A   Overcast
2:52 AM 60.1 °F 52.0 °F 75% 30.00 in 10.0 mi NNW 10.4 mph 21.9 mph N/A   Mostly Cloudy
3:52 AM 59.0 °F 48.9 °F 69% 30.04 in 10.0 mi NNW 6.9 mph - N/A   Mostly Cloudy
4:52 AM 55.9 °F 48.9 °F 77% 30.06 in 10.0 mi WNW 4.6 mph - N/A   Mostly Cloudy
5:52 AM 53.1 °F 48.0 °F 83% 30.08 in 10.0 mi Calm Calm - N/A   Clear
6:52 AM 48.9 °F 46.9 °F 93% 30.11 in 10.0 mi Calm Calm - N/A   Clear
7:52 AM 52.0 °F 48.9 °F 89% 30.12 in 10.0 mi NW 4.6 mph - N/A   Clear
8:52 AM 59.0 °F 50.0 °F 72% 30.14 in 10.0 mi Calm Calm - N/A   Clear
9:52 AM 63.0 °F 48.0 °F 58% 30.16 in 10.0 mi North 4.6 mph - N/A   Clear
10:52 AM 66.0 °F 46.0 °F 48% 30.17 in 10.0 mi North 5.8 mph - N/A   Clear
11:52 AM 66.9 °F 43.0 °F 42% 30.17 in 10.0 mi North 10.4 mph - N/A   Clear
12:52 PM 69.1 °F 39.0 °F 33% 30.16 in 10.0 mi NW 9.2 mph - N/A   Clear
1:52 PM 70.0 °F 39.9 °F 33% 30.14 in 10.0 mi NW 8.1 mph - N/A   Clear
2:52 PM 71.1 °F 39.9 °F 32% 30.15 in 10.0 mi North 4.6 mph - N/A   Clear
3:52 PM 70.0 °F 42.1 °F 36% 30.15 in 9.0 mi NNW 5.8 mph - N/A   Overcast
4:52 PM 66.9 °F 43.0 °F 42% 30.15 in 10.0 mi NW 6.9 mph - N/A   Partly Cloudy
5:52 PM 64.9 °F 46.0 °F 50% 30.16 in 10.0 mi NW 5.8 mph - N/A   Mostly Cloudy
6:52 PM 62.1 °F 46.0 °F 56% 30.16 in 10.0 mi NW 6.9 mph - N/A   Overcast
7:52 PM 57.0 °F 48.9 °F 74% 30.19 in 8.0 mi Variable 3.5 mph - 0.02 in Rain Light Rain
8:52 PM 55.0 °F 52.0 °F 89% 30.20 in 10.0 mi West 3.5 mph - 0.02 in   Overcast
9:52 PM 54.0 °F 51.1 °F 90% 30.19 in 10.0 mi Calm Calm - N/A   Clear
10:52 PM 54.0 °F 51.1 °F 90% 30.20 in 10.0 mi WSW 3.5 mph - N/A   Clear
11:52 PM 53.1 °F 50.0 °F 89% 30.22 in 10.0 mi West 3.5 mph - N/A   Clear